Content
SEND FEEDBACK

Daily
Averages
Monthly
Summary
United States of America

BELCHERTOWN, MASSACHUSETTS


Home > North America > United States > Massachusetts
Elevation: 560 feet     Latitude: 42 17N     Longitude: 072 21W

WEATHER
 
SELECT A DAY
Number of Records: 233,054;   Date Range: 1/1/95 - 10/24/14
 
SHARE

PRINT THIS DATA

[ ← Previous Day ]
WEATHER ALMANAC - JANUARY 31, 2013
[ Next Day → ]
[ °C ]   °F
Weather ElementAverageHighLow
Temperature49.7 °F59.2 °F (3:55 am)30.2 °F (10:43 pm)
Dewpoint44.8 °F59 °F (3:53 am)10.8 °F (11:55 pm)
Humidity85.8 %100 % (12:42 am)38 % (6:55 pm)
Barometer29.20 in29.63 in (11:55 pm)28.98 in (6:50 am)
Wind Speed21.8 mph35.7 mph (5:09 am)
Wind Gust50.6 mph (4:34 am)
Weather ElementAverage
Visibility6.4 mi
Wind DirectionSW (227.6 °)

Weather ElementTotal
Precipitation1.21 in
Heating Degree Days20.3 (Base 65)
Averaged from 96 records on January 31, 2013
WEATHER CONDITIONS BREAKOUT
WIND DIRECTION BREAKOUT
WEATHER BY HOUR - JANUARY 31, 2013
[ °C ]   °F
Local TimeTemperatureDewpointHumidityBarometerVisibilityWind DirectionWind SpeedGust SpeedPrecipitationEventsConditions
12:42 AM57.2 °F57.2 °F100 %29.34 in8.0 miSouth (190°)24.2 mph35.7 mphOvercast
12:46 AM57.2 °F57.2 °F100 %29.34 in8.0 miSouth (190°)24.2 mph36.8 mphLight Drizzle
12:55 AM57.4 °F57.0 °F99 %29.33 in6.0 miSouth (190°)17.3 mph32.2 mph0.01 inRainLight Rain
1:26 AM57.2 °F57.2 °F100 %29.29 in6.0 miSouth (180°)18.4 mph29.9 mphRainLight Rain
1:40 AM59.0 °F57.2 °F94 %29.28 in5.0 miSouth (180°)25.3 mph36.8 mphRainRain
1:55 AM57.9 °F57.4 °F98 %29.26 in5.0 miSouth (190°)25.3 mph35.7 mph0.12 inRainRain
1:56 AM57.2 °F57.2 °F100 %29.27 in5.0 miSouth (180°)20.7 mph35.7 mphRainLight Rain
1:59 AM57.2 °F57.2 °F100 %29.26 in7.0 miSouth (180°)27.6 mph35.7 mphRainLight Rain
2:03 AM57.2 °F57.2 °F100 %29.26 in7.0 miSouth (180°)19.6 mph35.7 mphRainLight Rain
2:05 AM57.2 °F57.2 °F100 %29.26 in5.0 miSouth (180°)24.2 mph35.7 mphRainLight Rain
2:06 AM57.2 °F57.2 °F100 %29.26 in4.0 miSouth (180°)23.0 mph35.7 mphRainLight Rain
2:11 AM57.2 °F57.2 °F100 %29.25 in3.0 miSouth (180°)23.0 mph31.1 mphRainRain
2:14 AM57.2 °F57.2 °F100 %29.24 in3.0 miSouth (180°)20.7 mph31.1 mphRainLight Rain
2:15 AM57.2 °F57.2 °F100 %29.24 in3.0 miSouth (180°)23.0 mph32.2 mphRainLight Rain
2:16 AM57.2 °F57.2 °F100 %29.24 in4.0 miSouth (180°)23.0 mph32.2 mphRainLight Rain
2:20 AM57.2 °F57.2 °F100 %29.24 in4.0 miSouth (190°)20.7 mph32.2 mphRainLight Rain
2:25 AM57.2 °F57.2 °F100 %29.23 in3.0 miSouth (180°)23.0 mph38.0 mphRainRain
2:27 AM57.2 °F57.2 °F100 %29.23 in3.0 miSouth (180°)21.9 mph38.0 mphRainRain
2:41 AM57.2 °F57.2 °F100 %29.19 in5.0 miSouth (190°)25.3 mph35.7 mphRainLight Rain
2:49 AM57.2 °F57.2 °F100 %29.18 in6.0 miSouth (190°)28.8 mph35.7 mphRainLight Rain
2:55 AM58.1 °F57.6 °F98 %29.18 in6.0 miSouth (190°)26.5 mph40.3 mph0.17 inRainLight Rain
2:58 AM59.0 °F57.2 °F94 %29.18 in6.0 miSouth (190°)26.5 mph40.3 mphRainLight Rain
3:05 AM59.0 °F57.2 °F94 %29.16 in6.0 miSouth (180°)26.5 mph40.3 mphRainLight Rain
3:19 AM59.0 °F57.2 °F94 %29.15 in9.0 miSouth (190°)24.2 mph41.4 mphRainLight Rain
3:53 AM59.0 °F59.0 °F100 %29.09 in7.0 miSouth (180°)32.2 mph44.9 mphRainLight Rain
3:55 AM59.2 °F58.6 °F98 %29.08 in7.0 miSouth (180°)32.2 mph44.9 mph0.07 inRainLight Rain
4:34 AM59.0 °F59.0 °F100 %29.03 in3.0 miSouth (190°)31.1 mph50.6 mphRainRain
4:39 AM59.0 °F59.0 °F100 %29.02 in2.5 miSouth (180°)27.6 mph50.6 mphRainHeavy Rain
4:45 AM59.0 °F59.0 °F100 %29.00 in3.0 miSouth (180°)31.1 mph40.3 mphRainRain
4:46 AM59.0 °F59.0 °F100 %29.00 in3.0 miSouth (180°)29.9 mph40.3 mphRainRain
4:48 AM59.0 °F59.0 °F100 %29.00 in3.0 miSouth (180°)32.2 mph44.9 mphRainRain
4:55 AM58.8 °F58.5 °F99 %29.00 in3.0 miSouth (180°)28.8 mph44.9 mph0.28 inRainRain
4:56 AM59.0 °F59.0 °F100 %28.99 in2.5 miSouth (180°)25.3 mph44.9 mphRainHeavy Rain
4:58 AM59.0 °F59.0 °F100 %28.99 in3.0 miSouth (180°)32.2 mph44.9 mphRainHeavy Rain
5:00 AM59.0 °F59.0 °F100 %28.99 in2.5 miSouth (190°)28.8 mph40.3 mphRainRain
5:06 AM59.0 °F59.0 °F100 %29.00 in2.0 miSouth (190°)31.1 mph47.2 mphRainHeavy Rain
5:09 AM59.0 °F59.0 °F100 %29.00 in2.0 miSouth (190°)35.7 mph49.5 mphRainHeavy Rain
5:15 AM59.0 °F59.0 °F100 %29.00 in2.5 miSSW (200°)27.6 mph49.5 mphRainRain
5:18 AM59.0 °F59.0 °F100 %29.00 in3.0 miSSW (200°)28.8 mph49.5 mphRainRain
5:55 AM58.8 °F58.5 °F99 %29.03 in10.0 miSSW (200°)20.7 mph28.8 mph0.28 inRainLight Rain
6:12 AM59.0 °F59.0 °F100 %29.04 in9.0 miSSW (200°)20.7 mph26.5 mphRainLight Rain
6:16 AM59.0 °F57.2 °F94 %29.04 in8.0 miSouth (190°)15.0 mph26.5 mphRainRain
6:50 AM57.2 °F57.2 °F100 %28.98 in10.0 miSouth (170°)17.3 mphPartly Cloudy
6:55 AM56.7 °F56.3 °F99 %28.99 in10.0 miSouth (180°)16.1 mph24.2 mph0.06 inPartly Cloudy
7:18 AM55.4 °F55.4 °F100 %28.98 in10.0 miSouth (180°)18.4 mph25.3 mphLight Drizzle
7:31 AM55.4 °F55.4 °F100 %28.98 in10.0 miSouth (190°)20.7 mph26.5 mphMostly Cloudy
7:45 AM55.4 °F55.4 °F100 %28.98 in10.0 miSouth (190°)20.7 mph27.6 mphMostly Cloudy
7:55 AM55.2 °F54.9 °F99 %28.98 in10.0 miSouth (190°)18.4 mph29.9 mph0.01 inOvercast
8:00 AM55.4 °F55.4 °F100 %28.99 in10.0 miSouth (190°)19.6 mph33.4 mphOvercast
8:13 AM55.4 °F55.4 °F100 %28.98 in10.0 miSSW (200°)18.4 mph28.8 mphRainLight Rain
8:14 AM55.4 °F55.4 °F100 %28.98 in10.0 miSSW (200°)19.6 mph27.6 mphRainLight Rain
8:15 AM55.4 °F55.4 °F100 %28.98 in10.0 miSSW (200°)19.6 mph27.6 mphRainLight Rain
8:27 AM53.6 °F51.8 °F94 %29.06 in3.0 miWNW (300°)28.8 mph41.4 mphRainLight Rain
8:28 AM51.8 °F50.0 °F94 %29.06 in2.0 miWNW (290°)31.1 mph41.4 mphRainLight Rain
8:29 AM50.0 °F48.2 °F94 %29.07 in1.2 miWNW (290°)28.8 mph41.4 mphRainLight Rain
8:30 AM48.2 °F46.4 °F93 %29.07 in1.0 miWNW (290°)23.0 mph41.4 mphRainHeavy Rain
8:31 AM48.2 °F46.4 °F93 %29.08 in0.8 miWNW (290°)21.9 mph41.4 mphRainHeavy Rain
8:33 AM46.4 °F44.6 °F93 %29.07 in0.5 miWNW (300°)26.5 mph41.4 mphFog-RainHeavy Rain
8:35 AM44.6 °F44.6 °F100 %29.07 in0.5 miWNW (300°)25.3 mph41.4 mphFog-RainHeavy Rain
8:36 AM44.6 °F44.6 °F100 %29.07 in0.5 miWNW (300°)20.7 mph41.4 mphFog-RainHeavy Rain
8:37 AM44.6 °F42.8 °F93 %29.08 in0.5 miWNW (300°)17.3 mph41.4 mphFog-RainHeavy Rain
8:40 AM44.6 °F42.8 °F93 %29.09 in0.5 miWNW (300°)20.7 mph33.4 mphFog-RainHeavy Rain
8:41 AM42.8 °F42.8 °F100 %29.09 in0.8 miWNW (300°)18.4 mph33.4 mphRainHeavy Rain
8:43 AM42.8 °F42.8 °F100 %29.09 in1.2 miWNW (300°)19.6 mph32.2 mphRainRain
8:44 AM42.8 °F42.8 °F100 %29.09 in1.5 miWNW (300°)20.7 mph32.2 mphRainRain
8:45 AM42.8 °F42.8 °F100 %29.09 in2.0 miWNW (300°)18.4 mph29.9 mphRainRain
8:46 AM42.8 °F42.8 °F100 %29.09 in3.0 miNW (310°)20.7 mph29.9 mphRainRain
8:55 AM43.0 °F40.5 °F91 %29.11 in9.0 miWNW (290°)21.9 mph31.1 mph0.20 inRainLight Rain
9:03 AM42.8 °F39.2 °F87 %29.10 in9.0 miWNW (300°)12.7 mph31.1 mphRainLight Rain
9:21 AM42.8 °F39.2 °F87 %29.12 in10.0 miVariable4.6 mphMostly Cloudy
9:55 AM44.2 °F38.3 °F80 %29.15 in10.0 miWest (270°)12.7 mph0.01 inMostly Cloudy
10:36 AM42.8 °F37.4 °F81 %29.20 in10.0 miWNW (300°)23.0 mph29.9 mphOvercast
10:51 AM42.8 °F35.6 °F76 %29.21 in10.0 miWest (280°)23.0 mph35.7 mphOvercast
10:55 AM43.0 °F34.9 °F73 %29.22 in10.0 miWest (280°)23.0 mph35.7 mphOvercast
11:55 AM44.2 °F31.6 °F61 %29.24 in10.0 miWest (270°)20.7 mph27.6 mphMostly Cloudy
12:55 PM43.0 °F25.0 °F49 %29.29 in10.0 miWest (280°)18.4 mph31.1 mphMostly Cloudy
1:55 PM42.8 °F19.4 °F39 %29.31 in10.0 miWest (280°)25.3 mph32.2 mphScattered Clouds
2:55 PM41.7 °F18.1 °F39 %29.34 in10.0 miWest (280°)20.7 mphScattered Clouds
3:55 PM41.0 °F17.6 °F39 %29.38 in10.0 miWest (270°)18.4 mph28.8 mphMostly Cloudy
4:55 PM38.3 °F18.5 °F45 %29.42 in10.0 miWest (280°)17.3 mph25.3 mphMostly Cloudy
5:55 PM36.9 °F16.5 °F44 %29.47 in10.0 miWNW (290°)20.7 mph25.3 mphMostly Cloudy
6:55 PM36.1 °F12.4 °F38 %29.52 in10.0 miWest (280°)16.1 mph28.8 mphOvercast
7:55 PM35.1 °F13.6 °F41 %29.55 in10.0 miWest (270°)20.7 mph28.8 mphMostly Cloudy
7:59 PM35.6 °F15.8 °F44 %29.55 in10.0 miWest (280°)24.2 mph28.8 mphOvercast
8:05 PM33.8 °F17.6 °F52 %29.55 in10.0 miWest (270°)23.0 mph29.9 mphSnowLight Snow
8:22 PM33.8 °F17.6 °F52 %29.57 in10.0 miWest (260°)12.7 mphMostly Cloudy
8:55 PM32.7 °F15.4 °F49 %29.58 in10.0 miWest (280°)9.2 mph0.00 inOvercast
9:07 PM32.0 °F14.0 °F48 %29.59 in10.0 miWest (280°)18.4 mph24.2 mphMostly Cloudy
9:34 PM32.0 °F15.8 °F51 %29.60 in10.0 miWest (270°)12.7 mph20.7 mphMostly Cloudy
9:55 PM30.9 °F14.9 °F52 %29.60 in10.0 miWest (270°)12.7 mph0.00 inScattered Clouds
10:26 PM32.0 °F14.0 °F48 %29.61 in10.0 miWest (260°)13.8 mph21.9 mphOvercast
10:43 PM30.2 °F17.6 °F60 %29.61 in10.0 miWest (260°)10.4 mphMostly Cloudy
10:55 PM30.9 °F15.8 °F54 %29.62 in10.0 miWest (260°)11.5 mph0.00 inMostly Cloudy
11:01 PM32.0 °F15.8 °F51 %29.62 in10.0 miWest (270°)12.7 mphMostly Cloudy
11:16 PM30.2 °F14.0 °F51 %29.62 in10.0 miWest (260°)16.1 mph24.2 mphMostly Cloudy
11:55 PM30.4 °F10.8 °F44 %29.63 in10.0 miWest (260°)13.8 mph0.00 inMostly Cloudy
Hourly data recorded from KCEF, located miles away from Belchertown, Massachusetts







STORIES FROM OUR PARTNERS